Location: Casaglia
(44.0333°N, 11.5167°E)
Time: 19:08:36
(UTC+00:00)

FALCON 9 DEB - Visible Passes

Search period start: 29 September 2020 00:00
Search period end: 09 October 2020 00:00
Orbit: 427 x 441 km, 53.0° (Epoch: 28 September)

Date Brightness Start Highest point End Pass type
(mag) Time Alt. Az. Time Alt. Az. Time Alt. Az.
29 Sep 6.5 02:09:30 11° NE 02:09:30 11° NE 02:09:43 10° NE visible
29 Sep 5.3 03:42:46 13° NW 03:44:27 18° N 03:46:55 10° NE visible
30 Sep 5.4 03:01:46 18° N 03:01:46 18° N 03:04:03 10° NE visible
30 Sep 5.0 04:36:33 10° NW 04:39:26 24° NNE 04:42:18 10° ENE visible
01 Oct 6.4 02:20:45 12° NE 02:20:45 12° NE 02:21:15 10° NE visible
01 Oct 5.2 03:54:02 11° NW 03:56:33 21° NNE 03:59:15 10° ENE visible
02 Oct 5.3 03:13:03 18° N 03:13:38 19° N 03:16:12 10° NE visible
03 Oct 6.1 02:32:07 15° NNE 02:32:07 15° NNE 02:33:11 10° NE visible
03 Oct 4.5 04:05:23 11° NW 04:08:27 34° NNE 04:11:39 10° E visible
04 Oct 4.8 03:24:31 23° NNW 03:25:36 28° NNE 03:28:37 10° E visible
05 Oct 5.7 02:43:43 20° NE 02:43:43 20° NE 02:45:32 10° ENE visible
05 Oct 3.1 04:17:00 12° NW 04:20:04 87° NNE 04:23:31 10° SE visible
06 Oct 3.5 03:36:18 40° NNW 03:37:18 60° NNE 03:40:41 10° ESE visible
07 Oct 5.1 02:55:43 29° ENE 02:55:43 29° ENE 02:57:45 10° E visible
07 Oct 4.2 04:29:01 14° W 04:31:21 28° SW 04:34:21 10° SSE visible
08 Oct 3.5 03:48:34 43° SW 03:48:39 43° SW 03:51:55 10° SSE visible
